Southbury, CT

2:45 PM EST on January 16, 2017 (GMT -0500)
Waterbury-Oxford

Weather History for KOXC - April, 2013

Change the Weather History Date:

Monday, April 22, 2013

  Actual Average Record
Temperature  
Mean Temperature 42 °F -  
Max Temperature 51 °F 57 °F 82 °F (2001)
Min Temperature 33 °F 37 °F 28 °F (2011)
Degree Days  
Heating Degree Days 23    
Moisture  
Dew Point 28 °F    
Average Humidity 61    
Maximum Humidity 75    
Minimum Humidity 37    
Precipitation  
Precipitation 0.00 in - - ()
Sea Level Pressure  
Sea Level Pressure 30.61 in    
Wind  
Wind Speed 6 mph (ESE)    
Max Wind Speed 16 mph    
Max Gust Speed 23 mph    
Visibility 10 miles    
Events      
Averages and records for this station are not official NWS values.
T = Trace of Precipitation, MM = Missing Value Source: NWS Daily Summary

Daily Weather History Graph

Daily Weather History Graph

Search for Another Location

Airport or City:

Trip Planner

Search our weather history database for the weather conditions in past years. The results will help you decide how hot, cold, wet, or windy it might be!

Date:

Astronomy

Apr. 22, 2013 Rise Set
Actual Time 6:01 AM EDT 7:40 PM EDT
Civil Twilight 5:32 AM EDT 8:10 PM EDT
Nautical Twilight 4:57 AM EDT 8:45 PM EDT
Astronomical Twilight 4:19 AM EDT 9:23 PM EDT
Moon 4:24 PM EDT (4/22) 3:57 AM EDT (4/22)
Length of Visible Light 14h 37m
Length of Day
13h 38m
Waxing Gibbous, 87% of the Moon is Illuminated
Apr 22
Waxing Gibbous
Apr 25
Full
May 2
Last Quarter
May 9
New
May 18
First Quarter

Hourly Weather History & Observations

Time (EDT) Temp. Windchill Dew Point Humidity Pressure Visibility Wind Dir Wind Speed Gust Speed Precip Events Conditions
12:15 AM 39.2 °F 34.2 °F 28.4 °F 65% 30.64 in 10.0 mi SSE 6.9 mph - N/A   Clear
12:35 AM 39.2 °F 37.0 °F 28.4 °F 65% 30.64 in 10.0 mi SE 3.5 mph - N/A   Clear
12:55 AM 39.2 °F 37.0 °F 28.4 °F 65% 30.64 in 10.0 mi SE 3.5 mph - N/A   Clear
1:15 AM 39.2 °F - 26.6 °F 61% 30.64 in 10.0 mi Calm Calm - N/A   Clear
1:35 AM 39.2 °F - 26.6 °F 61% 30.64 in 10.0 mi Calm Calm - N/A   Clear
1:55 AM 37.4 °F 34.9 °F 26.6 °F 65% 30.64 in 10.0 mi East 3.5 mph - N/A   Clear
2:15 AM 37.4 °F - 28.4 °F 70% 30.63 in 10.0 mi Calm Calm - N/A   Clear
2:35 AM 37.4 °F 34.9 °F 26.6 °F 65% 30.64 in 10.0 mi East 3.5 mph - N/A   Clear
2:55 AM 37.4 °F 34.9 °F 26.6 °F 65% 30.64 in 10.0 mi East 3.5 mph - N/A   Clear
3:15 AM 37.4 °F 34.9 °F 26.6 °F 65% 30.65 in 10.0 mi East 3.5 mph - N/A   Clear
3:35 AM 35.6 °F 31.7 °F 26.6 °F 70% 30.65 in 10.0 mi East 4.6 mph - N/A   Clear
3:55 AM 35.6 °F 32.8 °F 26.6 °F 70% 30.65 in 10.0 mi ENE 3.5 mph - N/A   Clear
4:15 AM 35.6 °F 31.7 °F 26.6 °F 70% 30.64 in 10.0 mi NE 4.6 mph - N/A   Clear
4:35 AM 35.6 °F 31.7 °F 26.6 °F 70% 30.64 in 10.0 mi NE 4.6 mph - N/A   Clear
4:55 AM 35.6 °F 30.7 °F 26.6 °F 70% 30.64 in 10.0 mi NE 5.8 mph - N/A   Clear
5:15 AM 35.6 °F 30.7 °F 26.6 °F 70% 30.64 in 10.0 mi NE 5.8 mph - N/A   Clear
5:35 AM 35.6 °F 31.7 °F 26.6 °F 70% 30.65 in 10.0 mi NE 4.6 mph - N/A   Clear
5:45 AM 33.8 °F 28.6 °F 26.6 °F 75% 30.65 in 10.0 mi ENE 5.8 mph - N/A   Clear
6:45 AM 33.8 °F 28.6 °F 26.6 °F 75% 30.66 in 10.0 mi ENE 5.8 mph - N/A   Clear
7:45 AM 37.4 °F 29.8 °F 26.6 °F 65% 30.67 in 10.0 mi East 11.5 mph - N/A   Clear
8:45 AM 42.8 °F 36.6 °F 24.8 °F 49% 30.66 in 10.0 mi East 11.5 mph 20.7 mph N/A   Clear
9:45 AM 44.6 °F 38.8 °F 24.8 °F 46% 30.70 in 10.0 mi ESE 11.5 mph 23.0 mph N/A   Clear
10:45 AM 46.4 °F 40.4 °F 24.8 °F 43% 30.67 in 10.0 mi East 13.8 mph 19.6 mph N/A   Clear
11:55 AM 50.0 °F - 24.8 °F 37% 30.66 in 10.0 mi East 11.5 mph 18.4 mph N/A   Partly Cloudy
12:45 PM 51.8 °F - 26.6 °F 38% 30.62 in 10.0 mi ESE 6.9 mph - N/A   Partly Cloudy
1:45 PM 51.8 °F - 32.0 °F 47% 30.60 in 10.0 mi South 11.5 mph 18.4 mph N/A   Partly Cloudy
2:45 PM 51.8 °F - 32.0 °F 47% 30.57 in 10.0 mi SSW 11.5 mph 18.4 mph N/A   Partly Cloudy
3:45 PM 51.8 °F - 33.8 °F 50% 30.56 in 10.0 mi South 15.0 mph 21.9 mph N/A   Partly Cloudy
4:45 PM 51.8 °F - 32.0 °F 47% 30.54 in 10.0 mi South 12.7 mph 19.6 mph N/A   Clear
5:45 PM 48.2 °F - 30.2 °F 50% 30.54 in 10.0 mi South 16.1 mph 21.9 mph N/A   Clear
6:45 PM 46.4 °F 41.1 °F 32.0 °F 57% 30.54 in 10.0 mi South 11.5 mph 20.7 mph N/A   Clear
7:45 PM 44.6 °F 38.8 °F 33.8 °F 66% 30.54 in 10.0 mi SSE 11.5 mph - N/A   Clear
9:15 PM 42.8 °F 38.6 °F 30.2 °F 61% 30.54 in 10.0 mi SE 6.9 mph - N/A   Clear
9:35 PM 41.0 °F 38.0 °F 30.2 °F 65% 30.54 in 10.0 mi SE 4.6 mph - N/A   Clear
9:55 PM 41.0 °F 39.0 °F 30.2 °F 65% 30.54 in 10.0 mi ESE 3.5 mph - N/A   Clear
10:15 PM 41.0 °F 37.1 °F 30.2 °F 65% 30.53 in 10.0 mi ESE 5.8 mph - N/A   Clear
10:55 PM 41.0 °F 38.0 °F 30.2 °F 65% 30.53 in 10.0 mi East 4.6 mph - N/A   Clear
11:15 PM 41.0 °F 35.2 °F 28.4 °F 61% 30.53 in 10.0 mi East 9.2 mph 17.3 mph N/A   Clear
11:55 PM 39.2 °F 34.2 °F 28.4 °F 65% 30.53 in 10.0 mi East 6.9 mph - N/A   Clear